When you browse on this site, cookies collect data to enhance your experience and personalize the content and advertising you see.
Visit our Privacy Policy to learn more. By continuing to use the site, you agree to this use of cookies and data.
  • In United Kingdom
  • List of Countries
  • For 7 days
  • Water Temperature
  • Weather Map
  • Weather Widgets
  • user-avatar
    Login

    Hourly Weather Wielkopole

    Today, 19 October, Saturday

    Time Temperature Precipitation Wind Pressure Humidity
    00:00 +14°C° 0 mm 2 mps 742 mmHg 82%
    01:00 +14°C° 0 mm 2 mps 743 mmHg 84%
    02:00 +13°C° 0 mm 2 mps 743 mmHg 86%
    03:00 +13°C° 0 mm 2 mps 743 mmHg 88%
    04:00 +12°C° 0 mm 2 mps 742 mmHg 90%
    05:00 +12°C° 0 mm 2 mps 742 mmHg 92%
    06:00 +12°C° 0 mm 2 mps 743 mmHg 90%
    07:00 +12°C° 0 mm 2 mps 743 mmHg 88%
    08:00 +13°C° 0 mm 2 mps 743 mmHg 86%
    09:00 +14°C° 0 mm 2 mps 743 mmHg 78%
    10:00 +16°C° 0 mm 2 mps 743 mmHg 70%
    11:00 +18°C° 0 mm 2 mps 743 mmHg 63%
    12:00 +19°C° 0 mm 2 mps 743 mmHg 61%
    13:00 +19°C° 0 mm 2 mps 743 mmHg 60%
    14:00 +20°C° 0 mm 3 mps 743 mmHg 58%
    15:00 +19°C° 0 mm 2 mps 743 mmHg 62%
    16:00 +19°C° 0 mm 2 mps 743 mmHg 65%
    17:00 +18°C° 0 mm 2 mps 742 mmHg 69%
    18:00 +17°C° 0 mm 2 mps 743 mmHg 69%
    19:00 +17°C° 0 mm 3 mps 743 mmHg 70%
    20:00 +17°C° 0 mm 3 mps 743 mmHg 71%
    21:00 +16°C° 0 mm 3 mps 743 mmHg 72%
    22:00 +15°C° 0 mm 4 mps 743 mmHg 74%
    23:00 +14°C° 0 mm 4 mps 743 mmHg 75%

    Tomorrow, 20 October, Sunday

    Time Temperature Precipitation Wind Pressure Humidity
    00:00 +14°C° 0 mm 4 mps 743 mmHg 77%
    01:00 +13°C° 0 mm 3 mps 743 mmHg 78%
    02:00 +13°C° 0 mm 3 mps 743 mmHg 79%
    03:00 +13°C° 0 mm 3 mps 743 mmHg 79%
    04:00 +13°C° 0 mm 3 mps 743 mmHg 79%
    05:00 +13°C° 0 mm 3 mps 743 mmHg 79%
    06:00 +13°C° 0 mm 3 mps 743 mmHg 79%
    07:00 +13°C° 0 mm 3 mps 743 mmHg 78%
    08:00 +13°C° 0 mm 3 mps 743 mmHg 78%
    09:00 +15°C° 0 mm 4 mps 744 mmHg 72%
    10:00 +17°C° 0 mm 4 mps 744 mmHg 66%
    11:00 +19°C° 0 mm 5 mps 744 mmHg 60%
    12:00 +20°C° 0 mm 4 mps 744 mmHg 58%
    13:00 +21°C° 0 mm 4 mps 744 mmHg 55%
    14:00 +22°C° 0 mm 4 mps 744 mmHg 53%
    15:00 +21°C° 0 mm 3 mps 744 mmHg 57%
    16:00 +20°C° 0 mm 3 mps 744 mmHg 61%
    17:00 +19°C° 0 mm 2 mps 744 mmHg 66%
    18:00 +18°C° 0 mm 3 mps 744 mmHg 67%
    19:00 +17°C° 0 mm 3 mps 744 mmHg 69%
    20:00 +16°C° 0 mm 3 mps 744 mmHg 70%
    21:00 +16°C° 0 mm 3 mps 744 mmHg 71%
    22:00 +16°C° 0 mm 3 mps 744 mmHg 72%
    23:00 +16°C° 0 mm 3 mps 744 mmHg 72%

    Day after tomorrow, 21 October, Monday

    Time Temperature Precipitation Wind Pressure Humidity
    00:00 +14°C° 0 mm 3 mps 744 mmHg 73%
    01:00 +14°C° 0 mm 3 mps 744 mmHg 74%
    02:00 +14°C° 0 mm 3 mps 744 mmHg 75%
    03:00 +14°C° 0 mm 3 mps 744 mmHg 75%
    04:00 +13°C° 0 mm 3 mps 744 mmHg 75%
    05:00 +13°C° 0 mm 4 mps 744 mmHg 75%
    06:00 +14°C° 0 mm 4 mps 744 mmHg 74%
    07:00 +14°C° 0 mm 4 mps 744 mmHg 73%
    08:00 +14°C° 0 mm 4 mps 744 mmHg 71%
    09:00 +16°C° 0 mm 5 mps 744 mmHg 65%
    10:00 +19°C° 0 mm 5 mps 744 mmHg 59%
    11:00 +20°C° 0 mm 6 mps 744 mmHg 53%
    12:00 +21°C° 0 mm 5 mps 744 mmHg 52%
    13:00 +22°C° 0 mm 5 mps 744 mmHg 50%
    14:00 +23°C° 0 mm 4 mps 744 mmHg 48%
    15:00 +22°C° 0 mm 4 mps 744 mmHg 53%
    16:00 +20°C° 0 mm 3 mps 744 mmHg 58%
    17:00 +19°C° 0 mm 2 mps 744 mmHg 64%
    18:00 +18°C° 0 mm 2 mps 744 mmHg 67%
    19:00 +17°C° 0 mm 2 mps 744 mmHg 71%
    20:00 +16°C° 0 mm 2 mps 745 mmHg 74%
    21:00 +16°C° 0 mm 2 mps 745 mmHg 76%
    22:00 +15°C° 0 mm 2 mps 745 mmHg 78%
    23:00 +15°C° 0 mm 2 mps 745 mmHg 79%

    22 October, Tuesday

    Time Temperature Precipitation Wind Pressure Humidity
    00:00 +15°C° 0 mm 2 mps 745 mmHg 80%
    01:00 +14°C° 0 mm 2 mps 745 mmHg 81%
    02:00 +14°C° 0 mm 2 mps 745 mmHg 82%
    03:00 +14°C° 0 mm 2 mps 746 mmHg 83%
    04:00 +14°C° 0 mm 2 mps 746 mmHg 83%
    05:00 +14°C° 0 mm 2 mps 746 mmHg 84%
    06:00 +14°C° 0 mm 2 mps 746 mmHg 84%
    07:00 +14°C° 0 mm 2 mps 746 mmHg 84%
    08:00 +14°C° 0 mm 2 mps 747 mmHg 84%
    09:00 +15°C° 0 mm 2 mps 747 mmHg 79%
    10:00 +17°C° 0 mm 3 mps 747 mmHg 73%
    11:00 +19°C° 0 mm 3 mps 747 mmHg 68%
    12:00 +19°C° 0 mm 3 mps 748 mmHg 67%
    13:00 +20°C° 0 mm 3 mps 748 mmHg 65%
    14:00 +20°C° 0 mm 3 mps 748 mmHg 64%
    15:00 +19°C° 0 mm 3 mps 748 mmHg 69%
    16:00 +18°C° 0 mm 2 mps 748 mmHg 73%
    17:00 +17°C° 0 mm 2 mps 748 mmHg 78%
    18:00 +16°C° 0 mm 2 mps 748 mmHg 82%
    19:00 +16°C° 0 mm 1 mps 748 mmHg 86%
    20:00 +15°C° 0 mm 1 mps 748 mmHg 89%
    21:00 +14°C° 0 mm 1 mps 749 mmHg 90%
    22:00 +14°C° 0 mm 1 mps 749 mmHg 90%
    23:00 +14°C° 0 mm 1 mps 749 mmHg 91%

    23 October, Wednesday

    Time Temperature Precipitation Wind Pressure Humidity
    00:00 +13°C° 0 mm 1 mps 749 mmHg 91%
    01:00 +13°C° 0 mm 1 mps 749 mmHg 91%
    02:00 +13°C° 0 mm 1 mps 749 mmHg 91%
    03:00 +12°C° 0 mm 1 mps 749 mmHg 91%
    04:00 +12°C° 0 mm 1 mps 749 mmHg 91%
    05:00 +12°C° 0 mm 1 mps 748 mmHg 91%
    06:00 +12°C° 0 mm 1 mps 748 mmHg 92%
    07:00 +12°C° 0 mm 1 mps 748 mmHg 92%
    08:00 +12°C° 0 mm 1 mps 748 mmHg 93%
    09:00 +14°C° 0 mm 1 mps 748 mmHg 87%
    10:00 +16°C° 0 mm 2 mps 748 mmHg 81%
    11:00 +17°C° 0 mm 2 mps 748 mmHg 75%
    12:00 +18°C° 0 mm 2 mps 748 mmHg 71%
    13:00 +19°C° 0 mm 2 mps 747 mmHg 67%
    14:00 +20°C° 0 mm 2 mps 747 mmHg 63%
    15:00 +19°C° 0 mm 2 mps 747 mmHg 67%
    16:00 +19°C° 0 mm 2 mps 746 mmHg 71%
    17:00 +18°C° 0 mm 2 mps 746 mmHg 75%
    18:00 +17°C° 0 mm 2 mps 746 mmHg 78%
    19:00 +16°C° 0 mm 2 mps 746 mmHg 81%
    20:00 +15°C° 0 mm 2 mps 746 mmHg 85%
    21:00 +15°C° 0 mm 1 mps 746 mmHg 85%
    22:00 +15°C° 0 mm 1 mps 746 mmHg 85%
    23:00 +14°C° 0 mm 1 mps 746 mmHg 85%

    24 October, Thursday

    Time Temperature Precipitation Wind Pressure Humidity
    00:00 +14°C° 0 mm 1 mps 746 mmHg 85%
    01:00 +14°C° 0 mm 1 mps 746 mmHg 85%
    02:00 +14°C° 0 mm 1 mps 746 mmHg 85%
    03:00 +13°C° 0 mm 1 mps 745 mmHg 85%
    04:00 +13°C° 0 mm 1 mps 745 mmHg 85%
    05:00 +13°C° 0 mm 1 mps 745 mmHg 85%
    06:00 +13°C° 0 mm 1 mps 745 mmHg 85%
    07:00 +13°C° 0 mm 1 mps 745 mmHg 84%
    08:00 +13°C° 0 mm 2 mps 745 mmHg 84%
    09:00 +15°C° 0 mm 2 mps 745 mmHg 76%
    10:00 +17°C° 0 mm 2 mps 745 mmHg 68%
    11:00 +18°C° 0 mm 3 mps 745 mmHg 60%
    12:00 +19°C° 0 mm 3 mps 745 mmHg 56%
    13:00 +20°C° 0 mm 3 mps 745 mmHg 53%
    14:00 +21°C° 0 mm 3 mps 745 mmHg 50%
    15:00 +20°C° 0 mm 3 mps 744 mmHg 54%
    16:00 +19°C° 0 mm 3 mps 744 mmHg 58%
    17:00 +18°C° 0 mm 2 mps 743 mmHg 62%
    18:00 +17°C° 0 mm 3 mps 743 mmHg 64%
    19:00 +17°C° 0 mm 3 mps 743 mmHg 67%
    20:00 +16°C° 0 mm 3 mps 743 mmHg 70%
    21:00 +14°C° 0 mm 3 mps 743 mmHg 70%
    22:00 +14°C° 0 mm 3 mps 743 mmHg 71%
    23:00 +13°C° 0 mm 3 mps 743 mmHg 71%
    Show more